Wind_Speed
26 25 26 25 25 26 27 28 31 30 30 30 32 34 34 34 34 33 33 34 36 37 37 38 40 41 43 44 45 45 46 47 47 48 49 51 52 53 53 53 54 53 53 53
26 25 26 26 26 26 27 28 29 30 29 29 30 32 34 33 32 32 32 33 34 36 37 37 38 39 41 42 44 45 46 47 47 48 49 50 51 52 53 53 54 54 53 53
26 25 26 26 25 26 26 26 28 28 27 28 28 28 29 30 31 31 31 32 33 35 36 36 37 39 41 41 42 44 45 46 47 48 48 49 50 51 52 53 54 54 54 54
26 25 25 25 24 24 24 24 25 26 26 26 27 27 26 27 29 30 30 31 31 32 34 35 36 37 38 40 41 43 44 45 46 46 47 48 49 49 50 52 53 53 54 54
25 25 25 24 23 24 24 23 23 24 25 26 26 27 26 26 28 29 29 30 30 30 31 33 35 36 36 37 38 40 42 43 44 45 45 46 47 48 49 51 52 53 53 54
24 25 26 24 24 23 24 24 22 23 24 24 25 26 26 26 26 28 29 30 30 31 31 32 34 35 36 37 38 39 40 42 43 43 44 44 46 47 48 49 51 52 53 53
25 26 26 25 24 23 23 23 23 23 23 23 23 24 24 25 26 27 29 30 31 31 32 33 34 35 36 37 37 38 40 41 42 43 43 44 45 46 47 48 49 51 52 52
25 26 25 24 24 24 23 23 23 23 23 23 23 23 24 25 26 27 28 29 31 32 33 34 36 36 36 36 37 38 40 41 42 43 43 44 44 45 45 46 47 48 49 49
25 25 24 24 24 23 23 23 23 23 23 23 23 24 25 26 27 27 28 29 30 31 32 34 35 36 36 37 37 38 38 38 39 40 41 42 42 43 44 44 45 45 46 47
25 24 24 24 24 24 24 23 23 23 23 23 24 24 25 27 28 29 29 29 30 30 31 32 33 34 35 36 36 36 36 37 38 38 39 39 40 40 41 42 43 43 44 45
24 24 23 22 23 23 23 23 23 23 24 24 24 25 26 26 27 28 29 30 31 31 31 31 32 33 34 35 35 36 36 37 38 38 39 40 40 40 40 40 40 42 43 43
23 23 23 22 22 23 24 24 23 23 23 24 25 26 26 27 27 28 29 30 30 31 31 31 31 32 33 33 34 35 36 36 37 38 39 39 40 40 41 41 41 41 42 43
24 24 24 24 24 24 25 25 25 25 25 25 25 25 26 26 27 28 28 29 29 30 31 31 32 32 33 33 33 34 35 35 35 36 36 37 38 39 39 40 40 40 41 41
26 26 25 25 25 25 25 26 26 26 26 26 25 25 25 26 26 26 27 27 28 29 29 30 31 31 31 32 32 32 33 34 35 35 35 35 36 36 37 37 37 37 38 39
26 26 26 26 25 25 25 25 25 25 25 25 24 24 25 25 25 25 25 26 26 27 28 29 29 29 30 30 31 31 32 33 34 34 34 35 35 35 36 36 36 37 37 38
26 26 26 26 26 25 25 25 25 24 23 23 23 23 24 24 24 24 24 25 25 26 27 27 28 28 28 29 30 31 32 32 33 33 34 34 35 35 36 36 36 36 36 37
25 25 25 25 25 25 25 24 24 22 21 21 22 22 22 22 23 23 24 24 25 25 25 26 26 27 28 29 30 30 31 31 32 32 33 33 34 34 35 35 35 35 35 35
24 25 25 25 25 24 24 23 23 21 21 21 21 21 21 21 21 22 23 24 24 24 24 25 26 26 27 28 29 29 30 30 31 31 31 32 32 32 32 33 34 34 34 34
24 24 24 24 24 24 24 24 22 21 21 21 21 20 20 21 21 21 22 23 23 23 23 24 24 25 25 26 27 28 28 29 29 29 30 30 31 31 32 32 32 32 33 33
25 25 24 24 24 23 23 22 22 21 21 21 21 21 21 21 22 22 22 22 22 22 23 23 24 24 24 25 26 26 27 27 27 28 28 29 30 30 30 31 31 32 32 33
25 25 24 23 23 23 22 22 21 21 21 22 22 22 22 22 22 22 22 22 23 23 23 23 24 24 24 24 25 25 25 25 25 26 26 27 28 28 29 29 30 30 31 31
24 23 23 23 22 22 22 22 22 22 22 23 23 23 23 23 23 23 23 23 23 23 24 24 24 24 25 25 25 25 25 25 25 25 25 25 26 26 27 27 28 28 29 30
23 22 23 23 23 23 23 23 23 23 23 23 24 24 24 24 24 24 24 24 24 24 24 25 25 25 25 25 25 25 25 25 25 25 25 25 26 26 26 26 27 27 28 29
23 23 23 23 23 23 23 23 23 24 24 24 24 24 24 25 25 25 25 24 24 24 24 24 25 25 24 24 24 24 24 25 25 25 25 25 26 26 26 26 27 27 28 29
24 23 23 23 23 23 23 24 24 24 24 24 25 25 25 26 25 25 25 25 25 25 25 25 24 24 24 24 24 24 24 24 25 25 25 25 25 26 26 26 27 27 28 28
25 24 24 24 24 24 24 24 24 24 24 25 25 26 26 26 26 25 25 25 25 25 25 25 25 24 24 24 24 24 24 24 25 25 25 25 25 26 26 26 27 27 27 28
24 24 24 24 24 24 24 24 24 25 25 26 26 26 26 27 26 26 26 26 26 26 26 25 25 25 25 24 24 24 24 24 25 25 25 25 25 25 25 26 26 27 27 27
Wind_Direction
293 289 285 284 281 279 276 274 272 269 269 268 265 263 262 262 261 261 260 257 254 250 249 248 247 247 246 247 248 248 249 248 249 249 249 249 249 250 250 249 249 249 249 249
294 291 287 285 283 281 278 276 275 272 270 270 268 263 261 261 260 258 258 256 254 251 249 248 248 247 246 247 248 249 249 248 249 249 250 250 250 250 249 249 250 250 250 249
294 292 289 287 287 284 281 278 277 274 270 268 266 264 260 258 257 257 257 255 252 250 249 248 248 248 248 249 250 251 250 250 250 251 251 250 250 250 250 250 250 251 251 250
296 295 293 294 291 288 285 280 279 275 271 268 266 264 261 257 255 255 256 255 253 250 249 249 250 250 250 250 251 251 251 251 252 252 251 251 250 251 251 252 252 252 252 252
298 296 296 299 297 291 288 284 280 277 273 270 267 264 262 259 257 256 256 255 253 251 250 249 251 251 252 253 253 253 252 253 253 252 252 252 251 252 253 253 253 253 254 254
297 296 298 302 300 295 290 286 282 280 277 273 269 266 264 262 260 258 257 254 254 254 253 252 252 253 254 254 255 255 255 254 254 253 253 254 254 254 255 255 255 255 256 256
297 297 298 302 299 297 292 289 283 280 278 275 271 269 266 264 262 260 258 256 256 257 256 255 255 256 256 256 256 256 256 255 254 253 254 255 256 256 257 257 257 257 256 257
297 297 300 300 297 296 293 288 284 280 278 276 273 270 267 265 264 264 263 261 259 258 258 258 258 259 258 258 257 257 257 255 254 254 255 256 256 257 257 258 258 257 257 257
299 300 299 297 295 294 293 289 285 281 278 277 274 271 269 268 267 266 266 266 264 262 261 260 261 261 260 260 260 259 258 257 256 256 256 256 256 257 257 258 257 257 256 257
298 300 299 298 295 293 292 292 288 283 278 277 275 273 271 270 269 268 267 267 266 264 263 262 263 262 261 261 261 260 259 258 257 257 257 256 257 257 258 258 258 257 258 258
299 300 300 298 295 292 291 292 289 285 281 278 276 273 272 271 270 269 268 267 267 266 265 265 264 263 262 262 261 261 261 260 259 258 257 257 257 258 258 258 259 258 258 258
301 301 300 299 297 295 293 292 290 286 282 280 279 275 273 272 270 270 269 268 267 267 266 266 265 265 264 262 261 260 260 260 260 259 258 257 257 258 259 259 259 259 258 257
299 299 298 299 298 297 296 294 291 287 283 281 279 276 274 274 272 271 270 269 268 268 267 266 265 264 263 262 262 261 261 260 260 259 259 259 260 259 259 259 260 259 259 258
296 296 296 297 297 297 297 296 293 289 284 282 280 277 276 276 275 272 271 270 270 269 268 267 266 264 263 263 262 262 262 261 261 261 261 260 260 259 259 258 258 258 258 259
294 294 295 297 297 297 297 297 296 293 287 283 280 279 278 278 277 275 273 271 271 270 269 268 267 265 264 263 263 263 263 263 262 262 261 261 260 259 259 259 259 258 258 259
296 294 294 295 296 297 297 298 297 295 290 286 281 280 280 279 278 277 275 274 274 273 270 269 267 266 265 265 264 264 264 264 263 263 263 262 261 260 259 259 259 260 260 260
297 296 295 295 296 297 297 297 296 295 292 290 286 282 282 282 280 279 278 278 278 277 275 272 270 268 267 266 266 266 266 265 265 264 264 263 262 261 260 259 260 260 260 260
299 298 297 297 296 296 296 295 293 293 293 291 290 287 285 285 283 282 282 281 281 280 277 275 273 272 269 268 268 267 266 265 265 264 264 263 262 262 261 261 260 259 259 259
300 300 299 299 298 297 295 293 291 292 292 292 292 291 288 286 285 285 285 285 284 281 278 277 276 275 274 272 271 270 268 267 266 265 264 263 262 262 262 261 260 259 259 259
299 299 298 298 297 297 296 293 291 290 291 291 293 293 290 288 287 287 287 287 287 285 282 279 277 277 277 276 274 273 271 269 268 266 265 264 263 262 262 261 260 259 260 261
297 297 297 296 296 295 294 293 290 288 289 290 292 293 292 290 289 289 289 288 288 286 284 282 280 279 278 277 276 274 272 271 269 268 267 266 264 263 263 263 262 262 262 262
298 297 297 296 295 294 294 293 290 289 288 290 291 292 292 291 289 289 289 288 288 286 285 284 283 282 279 277 275 273 273 272 270 269 268 267 266 265 265 264 263 263 262 263
300 298 297 296 295 294 293 293 291 289 289 290 290 291 291 291 290 290 289 289 288 287 286 285 284 283 281 278 275 274 273 272 271 269 268 268 267 266 265 264 264 263 264 265
300 299 298 297 296 294 293 292 291 290 289 289 290 291 292 292 291 290 288 288 288 287 287 286 285 284 283 281 278 275 274 273 271 269 268 268 267 266 266 265 265 266 267 268
301 301 300 299 297 295 294 293 293 292 291 290 291 291 292 293 292 291 289 287 287 287 287 286 285 284 283 282 279 277 275 274 272 271 270 269 268 267 267 267 267 268 269 270
300 299 298 297 297 296 295 294 294 293 293 292 291 291 291 292 292 291 289 288 287 287 286 285 284 283 283 282 280 278 276 275 273 272 270 270 269 269 269 269 269 271 272 272
302 300 298 297 297 297 297 296 295 295 295 294 292 291 291 291 291 291 290 288 287 287 286 284 283 282 282 281 280 279 277 276 275 274 272 271 270 270 269 270 271 272 272 272
Height
5520 5518 5516 5514 5513 5512 5510 5509 5508 5508 5507 5508 5507 5507 5508 5508 5509 5510 5511 5512 5514 5516 5519 5521 5523 5526 5529 5531 5534 5536 5539 5542 5544 5547 5549 5552 5555 5558 5561 5564 5567 5570 5573 5575
5513 5511 5508 5506 5505 5503 5502 5500 5499 5498 5498 5498 5497 5497 5498 5499 5500 5501 5501 5502 5504 5506 5508 5510 5512 5514 5517 5519 5522 5524 5527 5529 5531 5534 5536 5539 5541 5544 5547 5549 5552 5555 5558 5561
5505 5503 5500 5499 5498 5495 5493 5492 5491 5489 5490 5488 5488 5488 5488 5489 5490 5490 5491 5492 5493 5495 5497 5499 5501 5504 5506 5508 5510 5512 5514 5516 5518 5521 5523 5525 5527 5530 5533 5536 5538 5541 5544 5547
5497 5496 5493 5494 5490 5487 5485 5484 5482 5481 5480 5480 5480 5479 5480 5480 5480 5481 5482 5483 5484 5485 5487 5489 5491 5492 5494 5496 5498 5500 5501 5503 5505 5507 5509 5511 5514 5516 5519 5522 5524 5527 5529 5532
5490 5487 5485 5485 5482 5479 5477 5476 5475 5473 5472 5472 5471 5471 5471 5471 5472 5472 5473 5474 5475 5476 5478 5479 5481 5482 5484 5485 5486 5488 5489 5490 5492 5494 5496 5498 5500 5503 5505 5508 5510 5512 5515 5517
5483 5480 5478 5479 5475 5471 5469 5468 5467 5466 5465 5464 5463 5464 5465 5463 5464 5464 5464 5465 5466 5467 5468 5469 5470 5472 5473 5474 5475 5476 5477 5479 5480 5482 5484 5486 5488 5490 5491 5493 5496 5498 5500 5502
5476 5472 5471 5471 5467 5464 5463 5462 5460 5458 5456 5456 5455 5456 5456 5455 5455 5456 5456 5457 5457 5458 5459 5460 5460 5461 5462 5463 5464 5465 5466 5467 5468 5470 5471 5473 5475 5476 5478 5480 5482 5483 5486 5488
5469 5466 5466 5462 5459 5457 5455 5453 5451 5450 5448 5447 5447 5447 5447 5447 5447 5447 5447 5448 5448 5449 5449 5449 5450 5451 5452 5453 5453 5453 5454 5455 5456 5458 5459 5461 5462 5463 5465 5466 5468 5469 5471 5473
5463 5462 5458 5455 5452 5449 5447 5445 5443 5442 5441 5440 5439 5439 5438 5438 5438 5438 5438 5438 5439 5439 5439 5439 5440 5440 5441 5441 5441 5442 5443 5443 5444 5445 5447 5448 5449 5451 5452 5453 5454 5456 5458 5460
5455 5453 5451 5447 5444 5442 5440 5437 5435 5434 5433 5431 5431 5430 5430 5429 5429 5429 5429 5429 5429 5429 5429 5429 5429 5429 5430 5430 5430 5431 5431 5432 5433 5434 5435 5436 5437 5438 5439 5441 5442 5443 5445 5446
5448 5446 5443 5440 5437 5435 5432 5430 5428 5426 5424 5423 5422 5421 5421 5420 5420 5420 5420 5419 5419 5419 5419 5419 5419 5419 5419 5419 5419 5420 5420 5421 5421 5422 5423 5424 5425 5426 5427 5428 5429 5431 5432 5433
5442 5439 5436 5434 5431 5428 5425 5423 5420 5418 5417 5415 5414 5413 5412 5411 5411 5410 5410 5410 5410 5409 5409 5409 5408 5408 5408 5408 5408 5409 5409 5410 5410 5411 5412 5412 5413 5414 5415 5416 5417 5418 5419 5420
5435 5432 5429 5426 5423 5420 5417 5415 5412 5410 5408 5407 5405 5404 5403 5402 5401 5401 5400 5400 5400 5399 5399 5398 5398 5398 5398 5398 5398 5398 5399 5399 5399 5400 5400 5401 5401 5402 5403 5404 5405 5406 5406 5408
5427 5424 5421 5419 5416 5413 5409 5407 5404 5401 5399 5398 5396 5395 5394 5393 5392 5391 5391 5390 5390 5389 5389 5388 5388 5388 5387 5387 5388 5388 5388 5388 5388 5389 5389 5390 5390 5391 5391 5392 5393 5394 5395 5395
5419 5416 5413 5410 5408 5405 5402 5399 5396 5393 5391 5389 5388 5387 5386 5384 5383 5382 5382 5381 5380 5380 5379 5379 5378 5378 5377 5377 5377 5377 5377 5377 5378 5378 5378 5378 5379 5379 5380 5381 5381 5382 5383 5384
5411 5408 5405 5403 5400 5397 5394 5391 5388 5386 5383 5381 5380 5378 5377 5376 5375 5374 5373 5372 5371 5370 5370 5369 5368 5368 5368 5367 5367 5367 5367 5367 5367 5367 5367 5367 5368 5368 5369 5370 5370 5370 5371 5372
5403 5400 5398 5395 5392 5390 5387 5384 5381 5379 5377 5375 5373 5371 5370 5368 5367 5366 5365 5364 5363 5362 5361 5360 5359 5359 5358 5358 5357 5357 5357 5357 5357 5356 5356 5357 5357 5357 5358 5358 5359 5359 5359 5360
5395 5392 5389 5387 5385 5382 5379 5377 5374 5372 5370 5368 5366 5364 5362 5361 5360 5359 5357 5356 5355 5353 5352 5351 5350 5350 5349 5348 5348 5347 5347 5346 5346 5346 5346 5346 5346 5346 5346 5347 5347 5348 5348 5348
5387 5384 5382 5379 5377 5374 5372 5370 5368 5366 5364 5362 5360 5358 5356 5354 5353 5351 5350 5348 5347 5345 5344 5342 5341 5340 5340 5339 5338 5338 5337 5336 5336 5336 5336 5336 5336 5336 5336 5336 5336 5337 5337 5337
5380 5377 5375 5372 5370 5367 5365 5363 5361 5359 5357 5355 5353 5351 5349 5347 5346 5344 5342 5341 5339 5338 5336 5334 5333 5332 5331 5330 5329 5328 5328 5327 5326 5326 5326 5326 5326 5326 5326 5326 5326 5326 5327 5327
5372 5370 5367 5365 5363 5360 5358 5356 5354 5352 5350 5349 5347 5345 5342 5340 5338 5337 5335 5333 5331 5330 5328 5326 5325 5324 5322 5321 5320 5319 5318 5318 5317 5317 5316 5316 5316 5316 5316 5316 5316 5316 5317 5317
5365 5362 5360 5358 5355 5353 5351 5349 5347 5345 5343 5341 5340 5337 5335 5333 5331 5329 5327 5325 5323 5321 5320 5318 5316 5315 5313 5312 5311 5310 5310 5309 5308 5308 5307 5307 5307 5307 5307 5307 5307 5307 5307 5307
5357 5355 5353 5350 5348 5346 5344 5342 5340 5338 5336 5334 5332 5330 5327 5325 5323 5321 5319 5317 5315 5313 5311 5309 5308 5306 5304 5303 5302 5301 5301 5300 5299 5299 5298 5298 5298 5298 5297 5297 5297 5297 5297 5297
5350 5348 5345 5343 5341 5339 5336 5334 5332 5330 5328 5326 5324 5322 5319 5317 5315 5312 5310 5308 5306 5304 5302 5300 5299 5297 5296 5294 5293 5293 5292 5291 5291 5290 5290 5289 5289 5289 5288 5288 5288 5288 5287 5287
5343 5340 5338 5336 5333 5331 5329 5327 5324 5322 5320 5318 5315 5313 5311 5309 5306 5304 5301 5299 5297 5295 5294 5292 5290 5288 5287 5286 5285 5284 5283 5282 5282 5281 5281 5280 5280 5280 5279 5279 5279 5278 5278 5277
5335 5333 5330 5328 5325 5323 5321 5319 5316 5314 5312 5309 5307 5304 5302 5300 5297 5295 5293 5290 5288 5286 5285 5283 5281 5280 5278 5277 5276 5275 5274 5274 5273 5272 5272 5271 5271 5270 5270 5270 5269 5268 5268 5267
5327 5325 5322 5320 5317 5315 5313 5310 5308 5305 5303 5300 5298 5295 5293 5290 5288 5286 5283 5281 5279 5277 5275 5274 5272 5271 5269 5268 5267 5266 5265 5265 5264 5263 5263 5262 5262 5261 5261 5260 5259 5259 5258 5257